Temperature
24 23 22 21 21 21 21 21 20 20 20 19 19 19 19 19 18 18 18 18 18 18 18 18 18 18 18 18 17 17 17 17 17 18 18 18 18 18 18 18 18 18 18
24 23 22 22 21 21 21 21 21 20 20 19 19 19 19 18 18 19 18 18 18 18 18 18 18 18 18 18 17 17 17 17 17 18 18 19 19 18 18 18 18 18 18
24 23 22 22 21 21 21 21 21 20 20 20 19 19 19 19 19 18 18 18 18 18 18 18 18 18 18 18 18 17 17 18 17 17 18 18 19 19 18 18 18 17 17
25 23 22 22 21 21 21 21 21 21 20 20 19 19 19 19 19 18 18 18 18 18 18 18 18 18 18 18 17 17 17 17 18 17 17 17 17 18 18 18 18 18 17
25 24 23 22 22 21 21 21 21 21 20 20 19 19 19 19 19 18 18 18 18 18 18 18 18 18 18 18 17 17 17 17 17 17 17 17 17 17 18 18 18 18 18
25 24 23 22 22 21 21 21 21 20 20 20 19 19 19 19 18 18 18 18 18 18 18 18 18 18 18 17 17 17 17 17 17 17 17 17 17 17 17 18 18 18 18
25 24 23 22 21 21 20 20 20 20 20 20 20 19 19 19 18 18 18 18 18 18 18 18 18 18 18 17 17 17 17 17 17 17 17 17 17 17 17 17 17 17 17
25 24 23 22 21 21 20 20 20 20 20 20 20 19 19 18 18 18 18 18 18 18 18 18 18 18 17 17 17 17 17 17 17 17 17 17 17 16 16 17 17 17 17
25 24 23 22 21 21 20 20 20 20 20 19 19 19 19 19 18 18 18 18 18 18 18 18 18 18 17 17 17 17 17 17 16 16 16 16 16 16 16 16 16 16 17
25 24 23 22 21 21 20 20 20 20 19 19 19 19 18 18 18 18 18 18 18 18 18 17 17 17 17 17 17 16 16 16 16 16 16 16 16 16 16 16 16 16 16
25 24 23 22 21 21 20 20 19 19 19 19 19 19 18 18 18 17 17 17 17 17 17 17 17 17 17 16 16 16 16 16 16 16 16 16 16 15 15 15 15 15 15
24 23 22 21 21 20 20 20 19 19 19 19 19 18 18 18 17 17 17 17 17 17 17 17 17 16 16 16 16 16 15 15 15 15 15 15 15 15 15 15 15 15 15
23 22 21 21 20 20 20 19 19 19 19 18 18 18 18 18 17 17 17 17 17 16 16 16 16 16 16 15 15 15 15 15 15 15 15 15 15 15 14 14 15 15 15
22 21 21 20 19 19 19 19 19 18 18 18 18 18 18 17 17 17 17 16 16 16 16 16 16 16 15 15 15 15 15 15 15 15 14 14 14 14 14 14 14 14 14
21 21 20 19 19 19 19 18 18 18 18 18 18 18 18 17 17 17 16 16 16 16 16 16 16 16 15 15 15 15 15 14 14 14 14 14 14 14 14 14 14 14 14
21 20 20 19 18 18 18 18 18 18 18 18 17 17 17 17 17 17 16 16 16 16 16 16 16 15 15 15 15 15 15 14 14 14 14 14 14 14 14 14 14 14 13
21 20 19 19 18 18 18 18 18 17 17 17 17 17 17 17 16 16 16 16 16 16 15 15 15 15 15 15 15 15 14 14 14 14 14 14 14 14 13 13 13 13 13
20 20 19 19 18 18 17 17 17 17 16 16 16 16 16 16 16 16 15 15 15 15 15 15 15 15 15 15 15 15 14 14 14 13 13 13 13 13 13 13 13 13 13
19 19 19 18 18 17 17 17 17 16 16 16 16 16 15 15 15 15 15 15 15 15 15 15 14 14 14 14 14 14 14 13 13 13 13 13 13 13 13 13 12 12 12
18 18 18 18 17 17 17 17 16 16 16 16 16 15 15 15 15 15 15 14 14 14 14 14 14 14 14 14 14 14 13 13 13 13 13 13 13 13 13 12 12 12 12
17 17 17 17 17 17 16 16 16 16 16 15 15 15 15 15 14 14 14 14 14 14 14 14 14 14 14 14 13 13 13 13 13 13 13 13 13 13 13 12 12 12 12
17 16 16 16 16 16 16 16 16 16 15 15 15 14 14 14 14 14 14 14 13 13 14 13 13 13 13 13 13 13 13 13 12 12 13 12 12 12 12 12 12 12 12
16 16 16 16 16 16 15 15 15 15 15 15 14 14 14 14 14 14 14 13 13 13 14 14 13 13 13 13 13 13 13 12 12 12 12 12 12 12 12 12 12 12 11
16 16 16 16 15 15 15 15 15 15 14 14 14 14 14 13 13 13 13 13 13 13 13 13 13 13 13 13 12 12 12 12 12 12 12 12 12 12 12 12 12 11 11
16 15 15 15 15 15 15 14 14 14 14 14 14 14 13 13 13 13 13 13 13 13 13 13 13 13 12 12 12 12 12 12 12 12 12 12 12 12 11 11 11 11 11
15 15 15 15 14 14 14 14 14 14 14 14 13 13 13 13 13 13 13 13 12 12 12 12 12 12 12 12 12 12 12 11 11 11 11 11 11 11 11 11 11 11 11
Wind_Speed
9 9 10 9 9 8 8 7 6 6 5 4 3 3 3 2 2 1 1 1 1 1 1 1 1 2 1 2 2 2 2 2 1 2 2 2 2 2 2 2 2 2 3
9 10 10 10 10 10 9 8 8 7 6 5 4 3 2 2 2 1 1 1 1 1 1 1 2 1 1 2 2 2 3 1 0 2 2 2 3 3 2 3 3 3 3
9 9 10 10 10 10 10 8 8 8 7 6 5 4 3 3 2 2 1 1 1 1 2 2 3 2 2 2 2 2 3 2 1 1 2 2 2 1 2 2 2 3 3
8 9 9 10 10 9 9 9 8 8 8 7 6 6 4 3 2 2 1 1 1 2 2 2 2 3 3 2 3 2 2 3 2 1 1 2 2 3 2 3 2 3 4
9 9 9 9 9 9 8 9 9 8 8 7 7 6 5 4 3 3 2 2 2 2 2 2 2 3 3 2 3 3 3 2 3 2 2 2 2 4 4 4 3 3 3
8 8 8 8 8 8 8 8 9 9 9 8 7 7 5 4 3 3 2 2 2 2 2 3 3 3 3 2 3 3 3 3 3 3 2 2 2 3 3 5 5 4 3
7 8 8 8 9 9 9 9 9 9 9 9 8 7 6 5 5 4 3 3 3 2 2 3 3 3 3 3 3 3 3 3 3 4 3 3 3 4 4 5 5 5 4
7 8 8 8 9 9 9 9 9 9 9 9 8 7 7 6 5 5 4 4 3 3 2 3 3 4 4 4 3 3 3 3 4 4 4 4 4 4 4 5 5 5 5
5 7 7 8 8 9 9 8 8 8 9 9 8 7 7 6 5 5 5 4 3 3 3 3 4 4 4 4 4 3 3 4 4 4 4 4 4 4 4 4 5 5 6
4 5 6 6 7 8 8 7 7 7 7 8 8 6 7 6 6 5 4 4 4 4 4 4 4 4 4 4 4 4 3 4 4 4 4 5 4 4 4 4 5 5 6
3 4 5 5 6 6 7 7 7 7 7 7 7 6 6 5 5 4 4 5 4 4 5 5 4 4 4 4 4 4 4 4 4 4 4 5 5 5 5 4 5 5 5
3 4 5 5 5 6 6 6 6 7 7 7 6 6 5 5 5 4 4 4 5 5 5 5 5 5 5 4 4 5 4 5 5 5 5 5 4 5 5 5 5 5 5
3 4 4 4 4 5 5 5 5 5 6 6 7 6 6 5 5 4 4 4 5 6 6 6 5 5 5 5 5 5 5 5 5 5 5 5 5 5 4 5 5 5 6
2 3 3 3 3 4 4 4 4 4 4 5 6 6 6 5 4 4 4 5 5 6 6 6 5 5 6 5 5 5 5 5 5 5 5 5 5 5 5 5 5 5 6
2 3 3 3 3 3 3 3 4 4 4 4 5 4 4 4 4 4 5 5 6 6 5 5 5 5 5 5 4 5 5 5 6 5 5 5 4 4 5 5 4 5 6
3 3 3 3 3 3 3 3 3 4 4 5 4 4 4 4 4 4 5 5 5 5 5 5 5 6 5 1 3 6 6 6 6 6 6 5 5 5 6 6 7 7 7
2 3 3 3 3 3 3 3 3 3 4 4 4 4 5 4 4 5 5 5 5 5 5 5 5 5 4 3 4 6 6 6 6 6 5 5 4 4 5 6 9 9 9
2 2 2 3 3 3 3 3 3 3 3 4 4 4 4 4 4 4 4 4 4 4 5 5 5 5 4 3 5 6 6 6 6 6 5 5 5 5 6 7 6 7 6
1 1 2 2 2 2 3 4 4 4 4 4 4 4 4 4 4 5 5 4 4 4 5 5 5 5 4 3 5 6 5 5 6 6 6 6 6 4 6 7 7 7 6
1 1 0 0 1 2 3 3 3 3 3 4 4 4 4 5 5 5 5 4 4 5 5 4 5 5 5 3 4 6 5 5 6 5 5 5 6 5 6 7 7 7 7
1 1 1 1 1 1 2 3 2 3 3 3 4 4 4 5 5 5 5 5 5 5 5 5 5 5 4 4 4 5 5 5 6 5 5 4 4 5 7 8 7 7 8
1 0 0 0 1 1 2 2 2 2 2 3 4 4 4 5 4 4 5 5 6 6 5 5 5 4 4 3 3 4 6 7 6 6 5 3 2 6 7 7 6 8 8
1 0 1 1 1 1 2 2 2 2 2 3 4 4 4 5 5 5 5 5 5 5 5 5 4 4 3 3 5 6 7 8 7 6 5 6 6 7 7 8 9 9 7
0 1 1 1 0 0 1 2 2 2 3 4 4 4 4 4 4 4 4 4 4 5 5 5 5 4 4 3 2 3 4 6 6 6 5 8 9 8 6 6 6 6 6
1 1 1 1 1 1 1 2 2 2 4 4 4 4 4 3 4 4 3 4 3 4 5 5 5 5 4 3 3 4 4 5 4 5 5 5 4 5 5 5 4 5 5
1 2 2 1 1 1 2 2 2 3 4 4 3 4 4 3 3 3 3 2 2 2 3 4 5 4 3 2 3 4 5 6 6 6 5 5 5 5 5 5 4 4 4
Wind_Direction
186 187 189 188 184 184 185 186 185 177 182 184 191 186 186 194 183 183 157 226 280 294 283 314 332 300 316 316 306 293 267 263 269 263 256 236 223 217 218 230 238 222 228
186 189 191 192 191 189 190 189 189 185 189 182 190 196 199 198 179 195 144 232 265 279 251 292 296 310 289 278 292 294 296 299 295 295 272 247 214 213 221 224 229 241 230
195 191 194 196 195 193 193 192 191 189 192 189 188 187 190 209 199 201 189 211 250 272 308 302 300 299 281 275 276 279 282 302 305 328 286 283 290 273 213 224 234 242 247
198 193 194 196 197 194 191 190 187 187 187 188 193 197 204 208 209 223 200 215 230 264 281 294 301 295 292 282 267 281 282 278 277 246 260 280 306 287 262 230 229 238 241
197 195 194 193 193 188 187 186 183 184 186 190 192 204 214 211 210 220 207 254 237 252 270 278 285 283 282 286 293 287 280 269 274 274 262 248 245 252 268 273 269 249 238
193 191 187 184 184 180 184 184 181 185 187 191 195 203 211 218 224 238 248 250 249 253 260 267 276 275 289 281 274 274 261 275 285 280 265 256 261 263 261 266 268 270 264
189 185 183 183 183 183 187 188 186 190 192 195 198 203 209 211 218 234 233 252 268 267 270 279 273 281 284 281 276 262 275 272 271 268 270 266 267 276 275 273 277 277 272
187 185 185 186 186 187 188 189 189 193 196 198 201 204 210 222 228 230 245 245 260 273 284 270 269 274 278 279 275 267 260 260 268 271 275 270 271 272 271 271 279 279 273
188 184 181 184 184 183 185 186 187 193 199 200 199 204 212 224 235 236 240 247 255 260 264 260 259 266 269 269 266 266 268 267 267 268 260 266 270 266 270 270 269 274 279
183 176 175 175 176 176 177 179 181 192 199 201 204 204 212 218 229 238 242 253 257 265 270 265 259 260 258 256 259 259 262 264 265 267 273 273 273 272 269 269 268 268 274
172 162 160 161 163 166 170 176 177 190 198 199 198 207 209 218 225 231 237 244 253 256 260 263 262 261 260 259 258 263 262 259 261 261 256 260 273 274 272 267 265 264 267
159 152 147 145 153 160 167 175 183 193 199 199 196 202 203 209 219 229 237 246 254 257 257 258 257 261 261 263 259 262 261 258 257 259 260 262 261 263 271 273 271 271 268
150 143 138 143 150 158 165 174 185 197 197 196 199 200 202 200 211 222 237 250 255 261 260 256 255 257 258 255 254 255 257 257 258 257 257 259 260 261 266 266 268 270 265
153 149 141 144 155 166 171 180 188 193 196 200 203 200 203 203 210 225 236 246 254 255 258 258 257 257 254 252 254 253 253 257 260 260 259 259 254 255 261 259 261 268 271
180 171 160 157 170 180 183 187 188 189 193 195 198 197 196 201 213 221 232 238 246 253 256 261 261 258 251 251 257 260 256 258 260 260 261 256 251 267 267 273 274 272 271
210 198 192 186 194 197 198 194 191 186 183 188 195 194 194 197 211 223 232 237 244 253 254 252 256 259 263 278 273 266 260 255 256 259 259 253 237 241 244 261 273 275 268
224 216 214 211 211 213 209 195 185 181 181 192 200 195 198 205 219 229 234 238 239 247 251 251 254 262 270 266 257 265 263 258 259 259 261 266 260 247 254 245 243 246 249
237 230 232 225 212 194 188 179 171 174 186 197 208 214 215 216 229 238 239 249 254 252 253 253 252 259 258 243 252 267 256 258 258 255 252 259 269 265 268 261 256 255 253
275 254 256 231 196 184 172 168 169 179 196 209 218 224 231 233 237 242 243 248 257 258 255 253 254 256 253 227 242 261 260 256 257 255 252 254 256 262 269 259 260 265 263
333 274 242 184 177 178 173 174 182 196 214 228 234 235 237 241 245 248 251 251 252 253 257 255 254 256 259 222 231 259 260 260 261 255 250 245 249 249 252 258 263 265 271
330 283 214 192 176 179 181 193 206 226 239 247 247 246 242 242 242 248 250 252 254 253 251 252 253 253 250 221 209 245 262 269 271 270 266 259 220 236 244 257 265 273 281
43 42 216 140 128 169 187 200 218 243 252 253 252 251 252 251 244 242 246 250 249 244 244 248 255 252 244 240 218 221 249 276 274 276 278 285 238 245 245 249 262 269 270
31 298 216 140 119 170 202 220 238 246 250 251 255 254 254 251 248 243 244 247 246 252 257 257 259 263 264 236 202 214 233 251 262 279 287 274 251 252 242 230 238 246 256
293 269 227 160 138 246 245 264 260 258 253 255 261 264 261 259 260 260 258 262 264 268 271 269 269 267 262 265 266 265 255 244 254 273 263 238 235 244 253 249 238 246 253
290 283 270 246 253 284 281 282 284 268 264 266 275 277 276 277 268 271 283 271 279 280 277 281 282 280 272 288 316 290 282 286 288 284 274 275 270 262 257 255 255 252 250
304 301 297 291 294 293 288 294 289 270 264 264 270 275 276 276 273 271 281 340 268 257 248 269 281 293 314 307 289 282 287 289 279 275 274 273 270 268 267 262 254 249 251
Height
1525 1527 1528 1530 1532 1533 1534 1535 1537 1538 1539 1540 1541 1542 1542 1543 1544 1544 1543 1543 1543 1542 1542 1543 1542 1541 1541 1540 1539 1538 1538 1537 1537 1538 1538 1538 1537 1538 1538 1539 1539 1539 1539
1522 1524 1526 1528 1530 1531 1532 1533 1535 1536 1538 1539 1540 1541 1542 1543 1543 1543 1543 1543 1542 1542 1542 1541 1541 1541 1540 1539 1538 1537 1536 1536 1536 1536 1536 1536 1537 1536 1537 1537 1537 1537 1537
1519 1521 1523 1525 1527 1528 1530 1532 1533 1534 1536 1537 1539 1540 1541 1542 1543 1543 1542 1542 1542 1542 1541 1541 1540 1539 1539 1538 1537 1536 1535 1535 1535 1535 1536 1535 1534 1535 1536 1535 1535 1534 1534
1516 1518 1520 1522 1524 1526 1528 1529 1531 1532 1534 1535 1537 1539 1540 1541 1541 1542 1542 1541 1541 1540 1540 1539 1539 1538 1538 1537 1536 1536 1535 1534 1535 1534 1534 1534 1534 1534 1534 1534 1533 1532 1532
1513 1516 1517 1519 1522 1524 1526 1527 1528 1530 1532 1533 1535 1536 1538 1539 1540 1540 1540 1540 1540 1539 1538 1538 1537 1537 1536 1535 1535 1534 1533 1533 1533 1533 1533 1532 1532 1532 1532 1531 1531 1530 1530
1511 1513 1516 1517 1519 1521 1523 1525 1526 1528 1529 1531 1533 1534 1536 1537 1537 1538 1538 1539 1539 1538 1537 1536 1535 1535 1534 1533 1533 1532 1532 1531 1531 1530 1530 1530 1530 1530 1529 1529 1528 1528 1528
1508 1511 1513 1515 1516 1518 1520 1522 1524 1525 1527 1529 1530 1531 1533 1534 1534 1535 1536 1536 1537 1536 1535 1534 1533 1532 1532 1531 1530 1530 1529 1529 1528 1528 1528 1528 1527 1527 1527 1527 1526 1525 1525
1506 1508 1510 1512 1514 1516 1518 1520 1521 1523 1525 1526 1527 1529 1530 1532 1533 1533 1533 1534 1534 1533 1532 1531 1530 1530 1529 1529 1528 1528 1527 1526 1526 1526 1525 1525 1525 1524 1524 1524 1523 1522 1522
1504 1505 1508 1510 1512 1514 1515 1517 1518 1520 1522 1524 1525 1526 1527 1528 1530 1530 1530 1531 1530 1530 1529 1528 1527 1527 1526 1526 1525 1525 1524 1523 1523 1523 1522 1522 1522 1521 1521 1521 1520 1520 1518
1502 1504 1506 1508 1510 1511 1513 1514 1515 1517 1519 1521 1522 1524 1525 1525 1526 1527 1528 1528 1528 1527 1527 1526 1525 1524 1523 1523 1522 1522 1521 1520 1520 1519 1518 1518 1519 1518 1518 1517 1517 1517 1516
1501 1503 1504 1506 1508 1509 1511 1512 1512 1514 1516 1517 1519 1520 1521 1523 1524 1524 1524 1525 1525 1524 1523 1523 1522 1522 1521 1520 1519 1519 1518 1518 1517 1516 1516 1515 1515 1515 1515 1514 1513 1513 1513
1500 1502 1504 1505 1506 1508 1509 1510 1511 1512 1514 1515 1515 1517 1518 1519 1521 1521 1521 1521 1521 1521 1521 1520 1519 1519 1518 1517 1516 1515 1516 1515 1514 1514 1513 1512 1512 1511 1511 1510 1510 1510 1509
1500 1501 1502 1503 1505 1506 1507 1508 1509 1510 1511 1512 1513 1514 1515 1516 1517 1518 1518 1518 1518 1517 1518 1517 1516 1515 1515 1515 1513 1513 1513 1512 1512 1511 1510 1509 1508 1507 1508 1507 1507 1507 1506
1500 1501 1501 1502 1503 1504 1505 1506 1507 1508 1508 1509 1510 1511 1512 1512 1513 1514 1515 1515 1515 1515 1515 1514 1513 1512 1512 1511 1511 1510 1510 1509 1509 1508 1507 1506 1505 1504 1504 1504 1503 1503 1502
1499 1500 1501 1501 1502 1503 1503 1504 1504 1505 1506 1506 1507 1508 1508 1509 1510 1511 1512 1512 1512 1512 1511 1510 1510 1509 1509 1508 1507 1507 1507 1506 1506 1505 1504 1503 1501 1501 1500 1501 1500 1499 1499
1499 1499 1500 1500 1501 1501 1501 1502 1502 1502 1503 1504 1505 1505 1506 1506 1507 1508 1508 1508 1508 1508 1508 1507 1506 1506 1506 1505 1504 1503 1503 1502 1502 1501 1500 1500 1498 1497 1496 1496 1495 1495 1495
1498 1498 1498 1498 1499 1499 1499 1500 1500 1500 1501 1502 1502 1503 1503 1504 1504 1505 1505 1504 1503 1504 1504 1503 1503 1502 1501 1501 1500 1500 1499 1499 1498 1497 1496 1496 1496 1494 1493 1492 1491 1491 1490
1496 1497 1497 1497 1497 1497 1497 1498 1498 1499 1499 1500 1500 1501 1501 1501 1501 1501 1501 1501 1500 1500 1500 1499 1498 1498 1497 1497 1497 1496 1495 1495 1494 1494 1493 1492 1491 1490 1489 1488 1488 1487 1486
1495 1495 1496 1496 1495 1495 1495 1495 1496 1497 1498 1498 1498 1498 1498 1498 1498 1498 1498 1497 1496 1496 1496 1495 1495 1494 1493 1493 1492 1492 1491 1491 1490 1490 1489 1488 1487 1486 1485 1484 1483 1482 1482
1494 1494 1494 1494 1493 1493 1493 1494 1495 1495 1495 1495 1495 1495 1495 1495 1495 1495 1495 1494 1493 1493 1492 1492 1491 1490 1489 1489 1488 1488 1488 1488 1487 1486 1485 1484 1483 1482 1481 1480 1479 1478 1477
1492 1492 1492 1492 1492 1491 1491 1492 1493 1493 1493 1493 1492 1492 1492 1492 1491 1491 1491 1491 1490 1489 1489 1488 1487 1487 1486 1485 1485 1484 1484 1484 1483 1483 1482 1480 1479 1478 1477 1476 1475 1473 1473
1490 1490 1490 1490 1489 1489 1490 1490 1490 1491 1490 1490 1489 1489 1488 1489 1488 1487 1487 1487 1487 1486 1486 1485 1484 1484 1483 1482 1481 1481 1480 1480 1479 1479 1478 1477 1475 1473 1472 1471 1470 1470 1469
1489 1489 1488 1488 1488 1488 1488 1488 1488 1488 1488 1487 1487 1486 1485 1484 1484 1483 1483 1484 1484 1484 1483 1482 1481 1481 1480 1479 1478 1477 1476 1476 1475 1474 1473 1472 1470 1469 1468 1467 1466 1466 1465
1486 1487 1486 1485 1486 1486 1486 1486 1486 1486 1485 1484 1484 1483 1482 1481 1481 1480 1480 1481 1481 1480 1480 1479 1478 1477 1476 1476 1474 1473 1473 1472 1471 1470 1469 1467 1466 1465 1463 1463 1462 1462 1461
1486 1486 1485 1484 1484 1484 1483 1483 1483 1482 1482 1482 1481 1480 1479 1479 1477 1477 1477 1477 1476 1476 1476 1476 1475 1474 1473 1472 1470 1469 1469 1468 1467 1466 1465 1463 1462 1461 1460 1459 1458 1458 1457
1484 1484 1483 1482 1482 1481 1481 1480 1480 1479 1479 1478 1478 1477 1477 1476 1475 1474 1473 1472 1472 1472 1471 1471 1470 1469 1468 1467 1466 1465 1465 1464 1463 1462 1461 1460 1458 1457 1456 1455 1454 1454 1453